Wind_Speed
16 18 20 21 22 24 25 26 29 33 37 39 42 44 46 46 45 45 45 44 44 44 44 44 45 46 46 46 46 46 46 46 46 46 46 47 46 44 44 43 43 45 46 46
16 18 18 17 18 19 20 22 24 26 29 31 34 36 39 40 40 41 41 41 41 41 41 41 42 43 44 45 46 46 46 47 48 48 48 49 46 44 45 45 45 46 47 48
19 19 18 19 20 21 23 24 26 26 27 28 31 31 35 35 36 37 37 38 38 38 38 38 39 40 41 42 43 44 45 46 48 49 49 49 48 46 46 46 46 46 45 47
20 20 20 21 23 23 26 28 28 29 28 29 32 32 33 37 36 37 37 38 38 38 38 38 38 39 40 41 42 44 45 46 47 48 48 48 46 46 45 47 48 48 47 46
19 20 20 22 23 24 26 27 28 28 29 29 30 33 32 36 36 37 38 38 38 38 39 39 40 40 41 42 43 44 45 46 47 48 49 49 49 50 49 50 49 49 47 46
16 17 18 19 21 22 23 24 25 25 25 26 26 28 29 29 30 32 33 34 34 35 35 36 38 39 40 41 43 44 45 47 48 49 51 51 52 53 53 52 50 50 49 48
11 12 14 15 16 18 19 19 20 19 18 19 23 24 25 25 26 27 28 28 28 29 30 31 33 35 37 39 41 43 45 47 49 50 52 53 54 55 55 53 51 50 48 46
9 11 13 14 15 16 17 18 19 21 20 19 20 21 22 22 24 25 25 25 25 26 27 28 30 32 35 37 40 42 45 47 49 52 53 54 54 54 54 52 50 48 47 44
10 12 14 14 14 15 16 17 19 21 20 18 18 19 20 22 24 24 25 26 26 27 28 29 30 32 34 36 39 41 44 47 49 52 54 54 55 54 53 51 49 46 44 42
10 11 13 14 14 15 16 17 17 19 22 21 20 21 22 25 26 27 27 28 28 29 30 31 32 33 35 37 39 41 42 44 47 49 51 52 52 52 52 50 49 47 44 42
12 13 14 16 16 17 18 19 21 23 25 27 27 25 25 27 29 29 29 29 29 30 31 32 33 34 36 37 38 39 40 41 42 43 44 45 45 45 46 46 45 43 41 40
14 15 15 17 18 20 22 23 25 27 28 30 32 30 29 31 33 33 31 31 31 32 32 33 33 34 35 36 37 37 38 38 37 37 37 36 37 37 38 39 39 39 39 38
15 16 17 18 21 22 23 24 26 29 31 32 34 34 33 34 36 37 35 34 33 33 32 33 33 33 34 34 34 33 33 33 31 30 30 30 30 31 32 32 34 35 35 35
14 15 16 17 19 24 25 25 26 29 32 34 34 35 34 37 39 38 37 35 33 32 32 32 32 32 32 31 31 30 29 28 26 25 24 24 24 25 27 28 31 32 31 30
14 14 15 16 18 21 22 23 26 29 30 32 33 34 34 36 37 37 36 35 33 31 31 31 30 29 29 28 27 26 25 24 23 22 20 19 20 20 21 22 23 24 24 25
15 16 17 17 20 21 20 21 24 27 28 30 31 31 31 33 33 33 33 32 31 30 30 28 27 27 26 25 24 23 22 20 19 18 18 17 16 16 16 18 19 19 20 21
17 18 18 18 21 22 21 23 25 26 26 28 29 29 29 31 31 31 30 30 30 29 28 26 25 25 24 23 22 20 19 18 17 17 16 15 15 15 16 16 15 15 16 17
20 22 22 22 23 22 23 26 27 28 27 28 29 29 30 31 31 30 30 29 28 27 26 25 24 23 22 21 20 18 18 17 15 14 13 13 13 13 13 12 12 11 12 13
23 25 26 26 27 25 24 27 29 30 28 29 30 31 31 32 32 31 31 29 28 27 26 25 24 23 21 20 18 17 16 15 14 12 11 11 10 10 11 11 11 11 11 12
27 28 29 30 31 31 31 32 31 32 30 31 31 32 33 34 33 32 32 30 29 28 27 25 24 22 20 18 17 15 14 13 12 11 11 10 10 10 11 11 11 11 11 11
29 31 32 33 33 34 35 34 33 34 35 35 34 34 35 36 35 34 34 31 29 28 27 26 24 22 20 18 16 14 13 12 11 11 10 10 10 10 11 11 10 10 11 11
31 33 34 35 35 37 37 36 37 38 38 37 38 38 38 37 36 36 35 33 31 28 27 26 24 23 21 19 17 15 13 12 11 10 10 10 9 10 10 9 10 10 10 11
31 34 35 36 36 38 39 39 40 41 42 41 41 40 40 39 38 37 36 34 32 30 27 26 26 24 23 21 18 16 14 13 12 11 10 9 8 8 9 9 10 11 11 10
33 35 36 38 39 40 41 43 44 44 43 43 43 42 41 40 39 37 36 35 33 31 28 27 27 26 24 22 20 17 15 14 13 12 11 10 9 8 9 9 10 10 11 11
36 38 40 42 43 44 45 46 47 46 46 45 44 43 42 41 39 37 36 35 33 31 29 27 27 27 26 25 23 20 18 16 14 13 12 11 11 10 10 10 10 11 12 12
40 42 44 46 48 49 50 51 51 50 49 47 46 44 43 42 40 38 36 35 33 31 30 28 28 28 27 27 25 23 21 18 17 16 15 14 13 12 12 12 12 12 12 13
Wind_Direction
238 241 244 247 249 252 253 253 254 255 257 258 259 261 263 265 266 267 267 268 268 268 268 268 268 268 269 269 270 269 269 268 267 265 265 265 263 264 265 266 268 269 268 267
243 246 249 252 254 256 257 257 257 259 259 259 261 263 265 265 266 267 268 268 269 268 267 267 266 267 268 269 269 269 268 267 267 266 266 265 265 266 268 269 270 270 269 267
247 252 254 257 259 261 262 260 261 261 262 263 263 265 267 265 266 267 267 268 268 268 267 267 266 266 267 267 268 268 269 268 267 266 268 268 268 268 269 270 272 272 271 271
253 257 259 261 262 263 265 264 265 265 264 264 267 267 269 271 269 268 267 267 266 266 266 266 266 266 266 266 267 267 268 270 271 272 272 272 273 274 275 274 274 276 275 274
257 260 261 262 264 264 265 268 268 268 268 268 269 271 270 272 272 271 270 270 269 268 268 268 268 267 267 267 268 269 270 271 272 273 274 274 274 274 275 277 278 281 279 277
260 262 264 265 267 268 270 272 273 274 275 276 273 273 274 274 274 273 272 272 271 271 271 271 270 270 270 271 271 271 271 272 272 273 274 274 274 274 275 277 280 280 281 280
268 270 270 271 274 276 276 278 281 283 283 282 278 275 275 274 273 272 273 274 274 274 274 274 275 275 275 275 274 274 274 274 273 273 273 273 273 274 274 277 279 280 280 278
276 280 278 276 275 276 277 278 278 277 276 276 280 279 276 275 273 274 276 277 277 278 278 279 280 280 279 278 278 277 277 276 275 273 272 271 271 272 273 274 275 275 274 274
278 282 286 285 283 281 281 279 278 282 283 283 280 282 280 278 279 280 281 281 282 282 283 283 284 284 285 284 283 282 281 279 277 275 272 270 269 269 269 270 270 271 271 271
284 287 292 294 292 288 286 286 285 285 288 287 285 284 284 284 282 282 283 284 284 285 286 288 289 290 291 291 291 289 287 284 281 278 274 271 269 268 266 266 265 266 268 269
291 291 293 293 292 289 288 286 285 285 286 288 287 285 286 286 285 284 284 285 286 287 289 292 294 296 297 298 298 296 293 289 285 282 277 271 268 265 262 260 260 261 261 262
295 294 293 292 289 285 284 284 285 286 287 287 288 289 288 287 286 285 286 286 287 288 291 294 297 299 301 303 303 300 297 293 288 285 279 272 267 263 258 256 256 256 256 256
302 302 300 299 298 292 287 286 286 287 287 288 288 292 291 287 285 286 287 287 287 288 291 295 299 301 303 305 305 304 302 298 292 286 279 273 267 259 256 250 251 251 251 251
311 311 307 303 296 295 299 298 293 290 289 290 291 291 291 289 288 288 287 286 286 288 291 295 298 302 305 307 308 307 305 301 295 288 283 273 265 258 254 250 247 245 246 247
317 317 313 311 305 303 304 301 297 297 298 297 299 297 298 294 291 289 287 286 285 286 289 292 297 302 306 308 310 309 307 303 297 291 288 279 272 266 257 249 247 246 244 243
322 321 320 319 311 312 313 305 300 301 303 303 303 303 302 300 299 295 291 288 285 285 288 291 295 301 305 308 310 310 310 306 303 298 292 282 275 273 264 258 254 248 246 245
323 322 322 320 315 317 315 308 306 307 308 306 304 305 305 305 305 302 296 291 288 285 286 288 292 298 303 307 310 310 311 307 303 298 290 283 276 275 274 268 261 258 254 251
320 319 320 318 316 316 314 310 309 310 312 308 306 307 307 308 308 306 301 297 293 287 286 286 287 292 299 303 306 309 308 306 303 298 290 284 278 274 274 273 272 267 265 261
318 317 317 317 316 319 312 309 311 312 313 306 306 307 306 306 308 307 303 299 295 290 286 285 284 286 292 297 300 305 305 305 306 303 295 287 282 276 271 267 270 268 264 262
317 317 316 317 317 317 315 313 313 310 309 305 305 304 303 304 305 305 303 299 295 290 287 283 280 280 283 289 294 298 300 298 298 296 291 283 276 272 265 260 261 260 257 254
315 315 314 313 314 315 313 312 311 308 305 304 304 301 300 300 301 301 299 298 294 289 284 279 274 274 276 279 284 289 291 290 288 287 284 278 269 263 256 253 253 251 247 245
312 312 313 315 315 312 311 310 307 303 301 302 300 299 298 298 298 298 297 296 293 289 282 276 269 268 270 272 275 278 280 281 281 279 277 273 264 254 248 243 242 240 239 239
310 310 311 312 310 307 307 305 302 301 300 300 298 297 296 295 295 294 294 293 292 289 281 274 266 262 263 264 266 270 271 271 271 270 269 266 260 252 243 238 236 236 235 234
310 310 308 306 305 304 303 301 300 299 298 297 295 294 293 292 292 292 291 290 290 288 281 271 265 259 257 257 258 261 264 264 262 260 258 254 250 244 237 232 231 232 235 239
309 307 306 304 303 303 301 300 299 298 297 296 294 292 290 289 288 287 286 286 285 285 279 272 265 258 253 252 252 253 255 257 255 253 250 247 244 239 235 233 232 235 239 244
308 306 305 304 303 302 300 299 298 297 296 295 293 292 290 288 286 284 282 280 279 280 277 272 264 257 252 249 247 247 249 250 250 249 248 246 244 242 240 239 239 240 243 246
Height
5875 5877 5877 5878 5880 5882 5883 5884 5884 5884 5884 5885 5885 5884 5883 5884 5884 5884 5884 5884 5885 5885 5884 5884 5884 5883 5882 5881 5881 5881 5880 5880 5879 5877 5877 5875 5874 5873 5872 5870 5868 5866 5865 5863
5873 5873 5875 5876 5877 5878 5878 5879 5879 5878 5878 5878 5877 5877 5876 5876 5875 5875 5875 5875 5875 5875 5875 5874 5874 5874 5873 5872 5872 5871 5871 5871 5869 5869 5868 5866 5864 5864 5863 5861 5859 5857 5854 5853
5869 5871 5871 5872 5873 5874 5873 5874 5873 5873 5873 5872 5872 5872 5869 5868 5868 5868 5867 5867 5866 5866 5865 5865 5865 5865 5864 5863 5863 5862 5862 5861 5860 5859 5858 5856 5854 5854 5853 5851 5849 5846 5843 5842
5865 5866 5868 5868 5868 5869 5868 5867 5867 5867 5868 5867 5866 5866 5864 5861 5860 5860 5859 5859 5858 5858 5857 5856 5856 5856 5855 5855 5854 5853 5852 5851 5850 5848 5847 5845 5844 5843 5843 5840 5838 5836 5834 5832
5861 5862 5863 5863 5863 5863 5862 5861 5861 5860 5860 5861 5860 5859 5858 5853 5853 5851 5850 5850 5849 5849 5848 5848 5847 5847 5846 5846 5844 5843 5842 5841 5839 5838 5836 5834 5833 5833 5831 5829 5827 5826 5824 5822
5857 5857 5857 5857 5857 5856 5856 5856 5855 5854 5854 5854 5852 5851 5850 5847 5845 5843 5842 5841 5840 5840 5839 5838 5837 5837 5836 5835 5834 5832 5831 5829 5828 5826 5824 5822 5821 5820 5819 5818 5816 5815 5814 5811
5854 5854 5853 5853 5852 5852 5851 5851 5851 5850 5850 5849 5845 5844 5843 5840 5838 5836 5834 5833 5832 5831 5830 5829 5828 5827 5825 5824 5822 5820 5818 5817 5815 5813 5811 5809 5808 5807 5806 5806 5805 5804 5803 5801
5852 5852 5850 5849 5849 5848 5847 5847 5846 5845 5844 5843 5840 5838 5837 5834 5831 5829 5828 5826 5825 5823 5822 5820 5819 5817 5815 5813 5811 5808 5805 5803 5800 5798 5796 5795 5794 5793 5793 5793 5793 5792 5792 5791
5850 5849 5847 5846 5845 5844 5843 5842 5840 5839 5837 5837 5835 5834 5831 5828 5825 5824 5822 5820 5818 5816 5814 5812 5810 5807 5805 5802 5799 5795 5792 5788 5785 5783 5780 5779 5779 5778 5779 5779 5779 5780 5780 5781
5846 5846 5844 5843 5841 5840 5839 5838 5836 5834 5832 5832 5831 5829 5827 5823 5820 5818 5816 5813 5811 5809 5806 5803 5801 5797 5794 5790 5786 5781 5777 5773 5770 5766 5764 5763 5763 5763 5763 5765 5766 5768 5769 5770
5843 5843 5842 5840 5838 5837 5836 5834 5832 5830 5827 5825 5824 5825 5821 5817 5814 5812 5809 5806 5804 5801 5798 5794 5791 5787 5783 5778 5773 5768 5763 5759 5755 5751 5749 5748 5747 5748 5749 5751 5753 5756 5758 5759
5840 5840 5838 5837 5835 5833 5831 5829 5827 5825 5821 5818 5815 5818 5814 5810 5805 5803 5801 5798 5796 5792 5789 5785 5781 5777 5772 5767 5761 5756 5751 5746 5742 5739 5736 5735 5734 5735 5736 5738 5741 5744 5747 5749
5837 5836 5834 5833 5831 5828 5825 5824 5821 5818 5815 5812 5809 5810 5804 5801 5797 5794 5792 5790 5787 5784 5780 5776 5772 5767 5762 5757 5751 5745 5741 5736 5732 5729 5726 5725 5724 5725 5726 5728 5731 5734 5736 5739
5832 5831 5830 5828 5826 5822 5819 5817 5814 5811 5808 5804 5802 5800 5797 5792 5787 5785 5783 5780 5778 5775 5771 5768 5763 5759 5753 5748 5742 5737 5733 5729 5725 5722 5720 5718 5717 5718 5718 5720 5722 5724 5727 5730
5829 5827 5824 5822 5819 5816 5813 5811 5807 5803 5800 5797 5794 5790 5788 5783 5778 5775 5773 5770 5768 5766 5763 5759 5755 5751 5745 5740 5735 5731 5727 5723 5720 5717 5715 5713 5713 5713 5713 5714 5716 5717 5720 5723
5825 5823 5821 5818 5814 5811 5808 5805 5801 5797 5793 5789 5786 5783 5779 5773 5770 5766 5763 5761 5759 5757 5754 5751 5747 5743 5739 5734 5729 5725 5722 5718 5715 5713 5711 5710 5709 5709 5709 5710 5711 5713 5714 5717
5821 5819 5816 5814 5809 5806 5803 5800 5795 5791 5788 5783 5778 5776 5771 5766 5762 5758 5755 5752 5750 5748 5745 5743 5740 5736 5733 5728 5724 5721 5717 5715 5712 5710 5708 5707 5706 5706 5706 5707 5707 5708 5710 5712
5817 5814 5811 5808 5806 5803 5801 5793 5790 5786 5783 5777 5771 5768 5763 5759 5755 5751 5747 5744 5741 5739 5737 5735 5732 5730 5727 5723 5720 5717 5714 5711 5709 5707 5705 5704 5704 5703 5703 5704 5705 5705 5707 5708
5812 5809 5806 5803 5799 5797 5794 5788 5783 5779 5776 5770 5765 5761 5756 5752 5748 5744 5739 5736 5734 5731 5729 5727 5725 5723 5720 5718 5715 5712 5710 5708 5706 5704 5702 5701 5701 5701 5701 5701 5702 5702 5703 5705
5807 5804 5800 5796 5792 5790 5788 5781 5776 5773 5769 5763 5759 5754 5749 5745 5741 5738 5732 5729 5725 5723 5721 5719 5718 5716 5714 5712 5710 5708 5706 5704 5702 5701 5699 5698 5698 5698 5698 5698 5699 5699 5700 5701
5801 5797 5794 5790 5786 5782 5778 5773 5769 5766 5762 5755 5751 5746 5742 5737 5734 5730 5725 5721 5717 5715 5713 5711 5710 5709 5708 5707 5705 5703 5702 5701 5699 5698 5696 5695 5695 5695 5695 5695 5696 5696 5697 5698
5796 5791 5787 5783 5779 5777 5769 5764 5760 5756 5750 5746 5741 5737 5732 5728 5724 5720 5716 5712 5709 5707 5705 5703 5702 5702 5702 5701 5700 5699 5698 5696 5695 5694 5693 5692 5692 5692 5692 5692 5693 5694 5695 5695
5789 5785 5779 5776 5773 5766 5760 5754 5749 5743 5739 5735 5731 5727 5722 5718 5715 5711 5707 5703 5700 5698 5696 5695 5694 5694 5695 5695 5694 5694 5693 5692 5691 5691 5690 5689 5689 5689 5689 5690 5690 5691 5692 5693
5781 5775 5771 5765 5761 5755 5749 5743 5738 5732 5728 5723 5719 5714 5710 5707 5704 5700 5697 5694 5691 5689 5687 5686 5686 5686 5687 5687 5688 5688 5688 5687 5687 5687 5686 5686 5686 5686 5686 5687 5687 5688 5689 5690
5771 5766 5760 5755 5749 5744 5738 5731 5726 5721 5715 5710 5706 5702 5698 5694 5692 5689 5686 5684 5681 5679 5678 5677 5677 5677 5678 5680 5681 5681 5682 5682 5682 5682 5682 5682 5682 5683 5683 5684 5684 5685 5686 5687
5760 5755 5749 5743 5736 5730 5724 5718 5712 5706 5701 5696 5692 5688 5685 5681 5678 5676 5674 5672 5671 5669 5668 5668 5667 5668 5669 5671 5672 5674 5675 5676 5676 5677 5677 5678 5678 5679 5679 5680 5680 5681 5682 5682